Location: Boda
(47.1872°N, 9.5454°E)
Time: 08:15:14
(UTC+00:00)

Cosmos 2360 - Pass Details

Date: 14 May 2021
Orbit: 845 x 856 km, 70.8° (Epoch: 16 June)

Event Time Altitude Azimuth Distance (km) Brightness Sun altitude
Exits shadow 01:36:06 26° 193° (SSW) 1,620 5.1 -17.2°
Maximum altitude 01:39:24 73° 114° (ESE) 899 4.3 -16.9°
Drops below altitude 10° 01:45:08 10° 31° (NNE) 2,499 8.0 -16.3°
Sets 01:47:36 0° 29° (NNE) 3,440 9.1 -16.1°
